Flag for Canada Weather past 2 weeks in Kitchener, Ontario, Canada

Now
25 °F

Ice fog.


Feels Like: 15 °F
Forecast: 6 / 24 °F
Wind: 9 mph from Northwest

Location: Waterloo Well

Current Time: Feb 1, 2015 at 1:28:32 AM

Latest Report: Feb 1, 2015 at 1:00 AM


Visibility: 6 mi

Pressure: 30.17 "Hg

Humidity: 93%

Dew point: 23 °F

Location of KitchenerLocation

Historic Weather in Kitchener — Graph

°F

Kitchener temperature yesterday

Maximum temperature yesterday: 25 °F (at 3:00 PM)
Minimum temperature yesterday: 3 °F (at 12:00 AM)
Average temperature yesterday: 16 °F

Past Weeks' High & Low Weather Summary

 TemperatureHumidityPressure
High41 °F (Jan 17, 11:00 PM)100% (Jan 18, 8:00 AM)30.41 "Hg (Jan 18, 8:00 AM)
Low-8 °F (Jan 17, 1:00 AM)26% (Jan 28, 4:00 PM)29.49 "Hg (Jan 24, 2:59 PM)
Average19 °F79%30.02 "Hg
* Reported Midnight between Jan 16 and Jan 17 — Feb 1 12:03 AM, Kitchener, Weather by CustomWeather, © 2014

Note: Actual official high and low records may vary slightly from our data, if they occured in-between our weather recording intervals... More about our weather records

Advertising

Kitchener weather history for previous 24 hours

 ConditionsComfort  
Time TempWeatherWind HumidityBarometerVisibility
12:03 AM
Feb 1
25 °FLight snow. Mostly cloudy.10 mph93%30.18 "Hg2 mi
11:00 PM
Jan 31
25 °FIce fog.10 mph93%30.18 "Hg3 mi
10:04 PM25 °FLight snow. Overcast.8 mph86%30.18 "Hg5 mi
9:50 PM25 °FIce fog.8 mph86%30.19 "Hg5 mi
9:00 PM23 °FLight snow. Overcast.8 mph93%30.19 "Hg8 mi
8:00 PM23 °FOvercast.12 mph93%30.20 "Hg9 mi
7:00 PM23 °FOvercast.13 mph86%30.20 "Hg8 mi
6:00 PM23 °FOvercast.13 mph86%30.20 "Hg8 mi
5:00 PM23 °FMore clouds than sun.14 mph86%30.19 "Hg9 mi
4:56 PM23 °FMostly cloudy.12 mph80%30.19 "Hg9 mi
4:00 PM23 °FOvercast.13 mph74%30.19 "Hg9 mi
3:00 PM25 °FScattered clouds.14 mph69%30.20 "Hg9 mi
2:00 PM23 °FOvercast.14 mph74%30.22 "Hg9 mi
1:00 PM21 °FOvercast.12 mph74%30.24 "Hg9 mi
12:00 PM19 °FBroken clouds.14 mph73%30.27 "Hg9 mi
11:00 AM18 °FSunny.12 mph73%30.31 "Hg9 mi
10:00 AM14 °FMostly cloudy.10 mph79%30.32 "Hg9 mi
9:00 AM12 °FOvercast.8 mph79%30.32 "Hg9 mi
8:00 AM10 °FOvercast.7 mph72%30.33 "Hg9 mi
7:00 AM10 °FOvercast.5 mph79%30.33 "Hg9 mi
6:00 AM7 °FOvercast.2 mph92%30.33 "Hg9 mi
5:00 AM7 °FLight snow. Overcast.2 mph85%30.34 "Hg9 mi
4:00 AM7 °FLight snow. Overcast.2 mph85%30.35 "Hg9 mi
3:51 AM7 °FLight snow. Mostly cloudy.2 mph85%30.35 "Hg9 mi
3:00 AM5 °FMostly cloudy.No wind92%30.36 "Hg9 mi
2:00 AM5 °FLight snow. Overcast.No wind92%30.38 "Hg9 mi
1:00 AM5 °FLight snow. Mostly cloudy.No wind85%30.39 "Hg7 mi
Weather by CustomWeather, © 2014

See weather overviewHow to use our weather pages